{"data":{"norad_id":52703,"epoch":"2026-05-24T23:35:51.565344Z","epoch_age_seconds":72652,"freshness":"FRESH","line1":"1 52703U 22053AZ  26144.98323571 -.00001453  00000+0 -73223-4 0  9999","line2":"2 52703  53.2128 151.6391 0001165  69.6132 290.4985 15.08840060221550","mean_motion":15.0884006,"eccentricity":0.0001165,"inclination_deg":53.2128,"raan_deg":151.6391,"arg_perigee_deg":69.6132,"mean_anomaly_deg":290.4985,"bstar":-7.3223e-5,"rev_number":22155,"period_min":95.43755088263,"perigee_km":538.93727252417,"apogee_km":540.54913861206,"semimajor_km":6917.8802055681,"source":"CELESTRAK","updated_at":"2026-05-25T13:38:17.238794Z"}}